This demonstration page uses our WeatherBlox Daily Observations layout. Learn more.

Left ArrowRight Arrow

36.17497, -115.13722

Hourly Observations for February 14, 2020

Temp ( °F °C ) Dew Point ( °F °C ) Humidity (%) Winds ( mph kmh ) Pressure ( in mb ) Visibility ( mi km ) Precip ( " mm )
12:53 am 00:53 Clear 45 7.2 21 -6.1 39 39 NW 5 7 30.1 1019 10 16.0934 0 0
1:53 am 01:53 Clear 41 5 21 -6.1 45 45 NW 5 7 30.11 1020 10 16.0934 0 0
2:53 am 02:53 Clear 40 4.4 20 -6.7 45 45 NW 7 11 30.11 1020 10 16.0934 0 0
3:53 am 03:53 Clear 40 4.4 21 -6.1 47 47 WNW 6 9 30.11 1020 10 16.0934 0 0
4:53 am 04:53 Clear 41 5 21 -6.1 45 45 WNW 6 9 30.11 1020 10 16.0934 0 0
5:53 am 05:53 Clear 40 4.4 21 -6.1 47 47 Calm 30.13 1020 10 16.0934 0 0
6:53 am 06:53 Sunny 39 3.9 21 -6.1 48 48 Calm 30.15 1021 10 16.0934 0 0
7:53 am 07:53 Sunny 45 7.2 22 -5.6 40 40 NNW 3 6 30.16 1021 10 16.0934 0 0
8:53 am 08:53 Sunny 52 11.1 21 -6.1 30 30 Calm 30.16 1021 10 16.0934 0 0
9:53 am 09:53 Sunny 55 12.8 22 -5.6 28 28 Calm 30.16 1021 10 16.0934 0 0
10:53 am 10:53 Sunny 57 13.9 20 -6.7 24 24 Calm 30.15 1021 10 16.0934 0 0
11:53 am 11:53 Sunny 60 15.6 20 -6.7 21 21 SE 6 9 30.12 1020 10 16.0934 0 0
12:53 pm 12:53 Sunny 63 17.2 19 -7.2 18 18 Calm 30.09 1019 10 16.0934 0 0
1:53 pm 13:53 Sunny 63 17.2 19 -7.2 18 18 SW 5 7 30.06 1018 10 16.0934 0 0
2:53 pm 14:53 Sunny 64 17.8 20 -6.7 18 18 Calm 30.05 1018 10 16.0934 0 0
3:53 pm 15:53 Sunny 65 18.3 19 -7.2 17 17 VRB 3 6 30.05 1018 10 16.0934 0 0
4:53 pm 16:53 Sunny 64 17.8 18 -7.8 17 17 Calm 30.04 1017 10 16.0934 0 0
5:53 pm 17:53 Clear 61 16.1 19 -7.2 20 20 E 3 6 30.06 1018 10 16.0934 0 0
6:53 pm 18:53 Clear 57 13.9 20 -6.7 24 24 Calm 30.09 1019 10 16.0934 0 0
7:53 pm 19:53 Clear 55 12.8 22 -5.6 28 28 W 6 9 30.11 1020 10 16.0934 0 0
8:53 pm 20:53 Clear 52 11.1 23 -5 32 32 W 5 7 30.12 1020 10 16.0934 0 0
9:53 pm 21:53 Clear 50 10 22 -5.6 33 33 WNW 6 9 30.12 1020 10 16.0934 0 0
10:53 pm 22:53 Clear 47 8.3 22 -5.6 37 37 NW 6 9 30.13 1020 10 16.0934 0 0
11:53 pm 23:53 Clear 46 7.8 22 -5.6 38 38 NW 3 6 30.13 1020 10 16.0934 0 0

Powered by AerisWeather